Regional Weather Roundup
Issued by NWS

Home | Current Version | Previous Version | Graphics & Text | Print | Product List | Glossary Off
Versions: 1 2 3 4 5 6 7 8 9 10 11 12 13 14 15 16 17 18 19 20 21 22 23 24 25 26 27 28 29 30 31 32 33 34 35 36 37 38 39 40 41 42 43 44 45 46 47 48 49 50

000
ASUS43 KMKX 051711
RWRWI

WISCONSIN REGIONAL WEATHER ROUNDUP
NATIONAL WEATHER SERVICE MILWAUKEE/SULLIVAN WI
1100 AM CST THU MAR 05 2015

NOTE: "FAIR" INDICATES FEW OR NO CLOUDS BELOW 12,000 FEET WITH NO
SIGNIFICANT WEATHER AND/OR OBSTRUCTIONS TO VISIBILITY.

WIZ001-002-006>008-014>016-023>028-051800-
NORTHWEST WISCONSIN

CITY           SKY/WX    TMP DP  RH WIND       PRES   REMARKS
SUPERIOR ARPT  NOT AVBL
ASHLAND        SUNNY      4 -11  50 W14       30.44S WCI -14
HAYWARD        SUNNY      1 -12  54 SW10      30.42F WCI -15
SIREN          NOT AVBL
CUMBERLAND     NOT AVBL
RICE LAKE      NOT AVBL
CHETEK         NOT AVBL
LADYSMITH      NOT AVBL
EAU CLAIRE     SUNNY      2 -10  57 SW8       30.50S WCI -12
MENOMONIE      NOT AVBL
NEW RICHMOND   NOT AVBL
OSCEOLA        NOT AVBL
$$

WIZ003>005-009-010-017-018-051800-
NORTH CENTRAL WISCONSIN

CITY           SKY/WX    TMP DP  RH WIND       PRES   REMARKS
MANITOWISH WTR NOT AVBL
ARBOR VITAE    NOT AVBL
WOODRUFF       NOT AVBL
RHINELANDER    SUNNY      4 -10  52 W9        30.35S WCI -10
EAGLE RIVER    NOT AVBL
LAND O LAKES   NOT AVBL
PHILLIPS       NOT AVBL
TOMAHAWK       NOT AVBL
MEDFORD        NOT AVBL
MERRILL        NOT AVBL
$$

WIZ029-030-035-036-043>047-051800-
CENTRAL WISCONSIN

CITY           SKY/WX    TMP DP  RH WIND       PRES   REMARKS
WAUSAU         SUNNY      2 -11  54 W13       30.42S WCI -15
MOSINEE        NOT AVBL
MARSHFIELD     SUNNY      2 -12  52 W9        30.45R WCI -13
STEVENS POINT  NOT AVBL
WAUPACA        NOT AVBL
WAUTOMA        SUNNY      9 -10  41 NW13      30.49S WCI  -6
WISC RAPIDS    SUNNY      7 -11  43 W8        30.48S WCI  -6
CAMP DOUGLAS   SUNNY      9  -9  43 W9        30.49F WCI  -5
$$

WIZ011>013-019>022-031-037>040-048>050-051800-
NORTHEAST WISCONSIN

CITY           SKY/WX    TMP DP  RH WIND       PRES   REMARKS
ANTIGO         NOT AVBL
SHAWANO        NOT AVBL
OCONTO         NOT AVBL
STURGEON BAY   SUNNY      7  -6  56 NW10      30.46S WCI  -8
GREEN BAY      SUNNY      9  -4  55 W8        30.47S WCI  -3
MANITOWOC      SUNNY     12  -3  51 W12       30.46F WCI  -2
APPLETON       SUNNY      7  -8  51 W9        30.46S WCI  -7
CLINTONVILLE   NOT AVBL
OSHKOSH        SUNNY      9  -4  55 NW10      30.47S WCI  -5
$$

WIZ032>034-041-042-053>061-051800-
SOUTHWEST WISCONSIN

CITY           SKY/WX    TMP DP  RH WIND       PRES   REMARKS
LA CROSSE      SUNNY      8  -9  45 CALM      30.55S
SPARTA         NOT AVBL
VIROQUA        NOT AVBL
BOSCOBEL       SUNNY     10  -8  44 VRB5      30.54F WCI   2
PRAIRIE DU CHI NOT AVBL
PLATTEVILLE    NOT AVBL
$$

WIZ056-057-062-063-064-067-068-051800-
SOUTH CENTRAL WISCONSIN

CITY           SKY/WX    TMP DP  RH WIND       PRES   REMARKS
REEDSBURG      NOT AVBL
BARABOO/DELLS  NOT AVBL
LONE ROCK      SUNNY      9  -8  46 W9        30.53S WCI  -4
MINERAL POINT  NOT AVBL
MADISON        SUNNY      9 -10  42 W8        30.49S WCI  -3
MIDDLETON      NOT AVBL
WATERTOWN      NOT AVBL
MONROE         NOT AVBL
JANESVILLE     SUNNY     10  -6  48 NW7       30.49S WCI   0
$$

WIZ051-052-058>065-066-070>072-051800-
SOUTHEAST WISCONSIN

CITY           SKY/WX    TMP DP  RH WIND       PRES   REMARKS
MILWAUKEE      SUNNY     12  -9  38 NW9       30.48R WCI   0
WAUKESHA       SUNNY      7  -9  47 NW16      30.47S WCI -11
MILWAUKEE/TIMM SUNNY     10 -11  37 NW7G16    30.48S WCI   0
RACINE         SUNNY     12  -7  42 W7        30.49R WCI   1
BURLINGTON     NOT AVBL
KENOSHA        SUNNY     10  -5  50 NW10      30.47R WCI  -4
FOND DU LAC    SUNNY     10  -5  50 NW12      30.47S WCI  -5
SHEBOYGAN      SUNNY      9  -8  46 NW10      30.46S WCI  -5
WEST BEND      NOT AVBL
JUNEAU         NOT AVBL
$$

LSZ147-162-051800-
LAKE SUPERIOR

STATION/POSITION TIME  TEMP    WIND        PRES    WAVE
                       AIR SEA DIR/SP/G            HT/PER
                 (UTC) (F)     (DEG/KT/KT) (MB)    (FT/S)
DEVILS ISLAND    1700    1     240/ 16/ 21 1032.4R
PORT WING        1600    1     240/  7/ 11 1031.5
SAXON HARBOR     1600    4     210/  9/ 14 1030.8F
$$

LMZ867-665-643>646-051800-
LAKE MICHIGAN

STATION/POSITION TIME  TEMP    WIND        PRES    WAVE
                       AIR SEA DIR/SP/G            HT/PER
                 (UTC) (F)     (DEG/KT/KT) (MB)    (FT/S)
NORTHPORT PIER   1616    6     300/  8/ 11 1030.8F
SISTER BAY       1613   15        CALM       N/A
KEWAUNEE LAKESHO 1600    6     320/  4/  7 1030.5S
SHEBOYGAN LAKESH 1700    9     280/ 12/ 15 1033.6S
PORT WASHINGTON  1600    9     290/ 10/ 12 1032.5
MILWAUKEE LAKESH 1600    9     290/ 10/ 14   N/A
KENOSHA   LAKESH 1700    9     310/ 13/ 17 1031.8R
$$

TC  - TEMPERATURE IN CELSIUS
VSB - VISIBILITY IN STATUTE MILES
WCI - WIND CHILL INDEX
HX  - HEAT INDEX




USA.gov is the U.S. government's official web portal to all federal, state and local government web resources and services.